| time (UTC) | temp C | wind direction | speed KPH | gust KPH | rain 1hr cm | rain 24hr cm | rain mn cm | humidity % | barometer mb |
| 20260506094600 | 15 | 348 | 0.0 | 3.2 | 0.00 | 0.03 | 0.03 | 70 | 1017.9 |
| 20260506093051 | 15 | 349 | 0.0 | 3.2 | 0.00 | 0.03 | 0.03 | 70 | 1018.2 |
| 20260506091551 | 15 | 167 | 0.0 | 4.8 | 0.00 | 0.03 | 0.03 | 72 | 1018.2 |
| 20260506090050 | 16 | 336 | 0.0 | 9.7 | 0.00 | 0.03 | 0.03 | 68 | 1018.1 |
| 20260506084617 | 16 | 337 | 6.4 | 14.5 | 0.00 | 0.03 | 0.03 | 67 | 1018.0 |
| 20260506083048 | 16 | 342 | 8.0 | 17.7 | 0.00 | 0.03 | 0.03 | 67 | 1018.2 |
| 20260506081554 | 16 | 332 | 6.4 | 16.1 | 0.00 | 0.03 | 0.03 | 68 | 1018.4 |
| 20260506073045 | 15 | 346 | 6.4 | 11.3 | 0.03 | 0.03 | 0.03 | 76 | 1018.7 |
| 20260506071542 | 13 | 101 | 0.0 | 1.6 | 0.03 | 0.03 | 0.03 | 79 | 1019.1 |
| 20260506061538 | 15 | 355 | 0.0 | 0.0 | 0.00 | 0.00 | 0.00 | 70 | 1019.2 |
| 20260506044537 | 16 | 318 | 1.6 | 6.4 | 0.00 | 0.00 | 0.00 | 59 | 1018.9 |
| 20260506043032 | 16 | 314 | 1.6 | 4.8 | 0.00 | 0.00 | 0.00 | 61 | 1019.0 |
| 20260506041531 | 17 | 53 | 0.0 | 0.0 | 0.00 | 0.00 | 0.00 | 58 | 1019.0 |
| 20260506040035 | 17 | 60 | 0.0 | 0.0 | 0.00 | 0.00 | 0.00 | 58 | 1018.9 |
| 20260506034532 | 18 | 81 | 0.0 | 0.0 | 0.00 | 0.00 | 0.00 | 57 | 1018.7 |
| 20260506033028 | 18 | 357 | 0.0 | 1.6 | 0.00 | 0.00 | 0.00 | 56 | 1018.7 |
| 20260506031534 | 18 | 6 | 1.6 | 4.8 | 0.00 | 0.00 | 0.00 | 53 | 1018.7 |
| 20260506030028 | 20 | 341 | 4.8 | 14.5 | 0.00 | 0.00 | 0.00 | 50 | 1018.5 |
| 20260506024525 | 20 | 359 | 8.0 | 12.9 | 0.00 | 0.00 | 0.00 | 46 | 1018.7 |
| 20260506023040 | 20 | 330 | 9.7 | 16.1 | 0.00 | 0.00 | 0.00 | 47 | 1018.5 |
| 20260506021533 | 20 | 321 | 9.7 | 14.5 | 0.00 | 0.00 | 0.00 | 47 | 1018.5 |
| 20260506020026 | 21 | 10 | 11.3 | 17.7 | 0.00 | 0.00 | 0.00 | 47 | 1018.5 |
| 20260506014520 | 21 | 299 | 3.2 | 11.3 | 0.00 | 0.00 | 0.00 | 41 | 1018.4 |
| 20260506013024 | 21 | 281 | 4.8 | 11.3 | 0.00 | 0.00 | 0.00 | 41 | 1018.3 |
| 20260506011516 | 21 | 272 | 4.8 | 11.3 | 0.00 | 0.00 | 0.00 | 45 | 1018.3 |
| 20260506010016 | 20 | 339 | 8.0 | 12.9 | 0.00 | 0.00 | 0.00 | 51 | 1018.3 |
| 20260506004515 | 21 | 45 | 0.0 | 4.8 | 0.00 | 0.00 | 0.00 | 47 | 1018.3 |
| 20260506003015 | 22 | 169 | 0.0 | 4.8 | 0.00 | 0.00 | 0.00 | 41 | 1018.4 |
| 20260506001511 | 21 | 149 | 1.6 | 3.2 | 0.00 | 0.00 | 0.00 | 43 | 1018.5 |
| 20260506000009 | 21 | 358 | 1.6 | 6.4 | 0.00 | 0.00 | 0.00 | 40 | 1018.7 |
| 20260505234508 | 21 | 27 | 0.0 | 3.2 | 0.00 | 0.00 | 0.00 | 43 | 1018.8 |
| 20260505233005 | 21 | 302 | 0.0 | 4.8 | 0.00 | 0.00 | 0.00 | 44 | 1018.8 |
| 20260505231503 | 20 | 320 | 0.0 | 4.8 | 0.00 | 0.00 | 0.00 | 44 | 1018.6 |
| 20260505230100 | 20 | 279 | 3.2 | 6.4 | 0.00 | 0.00 | 0.00 | 45 | 1018.6 |
| 20260505224603 | 20 | 288 | 1.6 | 8.0 | 0.00 | 0.00 | 0.00 | 50 | 1018.6 |
| 20260505223057 | 19 | 311 | 0.0 | 4.8 | 0.00 | 0.00 | 0.00 | 54 | 1018.7 |
| 20260505221549 | 18 | 360 | 0.0 | 8.0 | 0.00 | 0.00 | 0.00 | 58 | 1018.9 |
| 20260505220048 | 16 | 34 | 3.2 | 12.9 | 0.00 | 0.00 | 0.00 | 59 | 1019.0 |
| 20260505214554 | 15 | 325 | 1.6 | 6.4 | 0.00 | 0.00 | 0.00 | 64 | 1019.1 |
| 20260505213044 | 15 | 345 | 3.2 | 11.3 | 0.00 | 0.00 | 0.00 | 57 | 1019.1 |
| 20260505211542 | 16 | 332 | 4.8 | 17.7 | 0.00 | 0.00 | 0.00 | 55 | 1018.9 |
| 20260505210040 | 15 | 338 | 8.0 | 16.1 | 0.00 | 0.00 | 0.00 | 59 | 1018.8 |
| 20260505204537 | 15 | 335 | 12.9 | 19.3 | 0.00 | 0.00 | 0.00 | 59 | 1018.9 |
| 20260505203051 | 12 | 4 | 1.6 | 6.4 | 0.00 | 0.00 | 0.00 | 66 | 1019.1 |
| 20260505201536 | 11 | 350 | 4.8 | 8.0 | 0.00 | 0.00 | 0.00 | 70 | 1018.9 |
| 20260505200030 | 10 | 348 | 1.6 | 6.4 | 0.00 | 0.00 | 0.00 | 70 | 1019.0 |
| 20260505194530 | 10 | 340 | 3.2 | 8.0 | 0.00 | 0.00 | 0.00 | 71 | 1018.9 |
| 20260505193033 | 7 | 331 | 1.6 | 6.4 | 0.00 | 0.00 | 0.00 | 76 | 1018.8 |
| 20260505191528 | 5 | 10 | 3.2 | 6.4 | 0.00 | 0.00 | 0.00 | 79 | 1018.8 |
| 20260505190034 | 5 | 351 | 0.0 | 3.2 | 0.00 | 0.00 | 0.00 | 74 | 1018.9 |
| 20260505184530 | 5 | 351 | 0.0 | 3.2 | 0.00 | 0.00 | 0.00 | 73 | 1018.9 |
| 20260505183027 | 5 | 345 | 0.0 | 6.4 | 0.00 | 0.00 | 0.00 | 72 | 1019.0 |
| 20260505181528 | 7 | 292 | 1.6 | 6.4 | 0.00 | 0.00 | 0.00 | 69 | 1019.1 |
| 20260505180023 | 5 | 302 | 1.6 | 6.4 | 0.00 | 0.00 | 0.00 | 73 | 1019.1 |
| 20260505174529 | 7 | 316 | 1.6 | 4.8 | 0.00 | 0.00 | 0.00 | 67 | 1019.3 |
| 20260505173021 | 5 | 346 | 0.0 | 1.6 | 0.00 | 0.00 | 0.00 | 79 | 1019.4 |
| 20260505171520 | 6 | 290 | 0.0 | 4.8 | 0.00 | 0.00 | 0.00 | 71 | 1019.4 |
| 20260505170021 | 10 | 344 | 0.0 | 1.6 | 0.00 | 0.00 | 0.00 | 60 | 1019.4 |
| 20260505164518 | 10 | 307 | 1.6 | 6.4 | 0.00 | 0.00 | 0.00 | 59 | 1019.5 |
| 20260505163021 | 10 | 322 | 0.0 | 4.8 | 0.00 | 0.00 | 0.00 | 64 | 1019.5 |
| 20260505161516 | 7 | 316 | 0.0 | 4.8 | 0.00 | 0.00 | 0.00 | 69 | 1019.6 |
| 20260505153011 | 11 | 324 | 4.8 | 16.1 | 0.00 | 0.00 | 0.00 | 62 | 1019.7 |
| 20260505151507 | 11 | 330 | 11.3 | 25.7 | 0.00 | 0.00 | 0.00 | 62 | 1020.1 |
| 20260505124543 | -1 | 282 | 0.0 | 6.4 | 0.00 | 0.00 | 0.00 | 98 | 1021.2 |
| 20260505123040 | -1 | 7 | 0.0 | 0.0 | 0.00 | 0.00 | 0.00 | 97 | 1021.4 |
| 20260505121538 | -1 | 298 | 0.0 | 0.0 | 0.00 | 0.00 | 0.00 | 97 | 1021.5 |
| 20260505120039 | -1 | 294 | 0.0 | 0.0 | 0.00 | 0.00 | 0.00 | 97 | 1021.7 |
| 20260505114538 | -1 | 307 | 0.0 | 0.0 | 0.00 | 0.00 | 0.00 | 97 | 1021.7 |
| 20260505113030 | 0 | 283 | 0.0 | 0.0 | 0.00 | 0.00 | 0.00 | 97 | 1021.8 |
| 20260505111527 | 0 | 301 | 0.0 | 0.0 | 0.00 | 0.00 | 0.00 | 97 | 1022.1 |
| 20260505101520 | 2 | 114 | 0.0 | 0.0 | 0.00 | 0.00 | 0.00 | 97 | 1022.6 |
| 20260505100020 | 2 | 77 | 0.0 | 3.2 | 0.00 | 0.00 | 0.00 | 98 | 1022.8 |